TKJ8NA LTAC-LTFH

Flight info

Callsign TKJ8NA
Flight time 0h 57m
Altitude 29000
Route ILHAN W71 ERGUN UW71 HAVZA
Aircraft B738/M-SDE2E3FGHIRWXY/LB1

Departure

Time 2026-05-04 19:33
Airport Esenboğa International Airport (LTAC)

Arrival

Time 2026-05-04 20:31
Airport Samsun-Çarşamba Airport (LTFH)
Time Latitude Longitude Altitude Speed Heading
2026-05-04 18:54 40.12535 32.99848 3138 ft 0 kts 180°
2026-05-04 19:22 40.12536 32.99848 3138 ft 0 kts 180°
2026-05-04 19:23 40.12546 32.99848 3137 ft 2 kts 180°
2026-05-04 19:23 40.12561 32.99849 3136 ft 2 kts 197°
2026-05-04 19:23 40.12575 32.99857 3136 ft 2 kts 216°
2026-05-04 19:23 40.12585 32.99871 3136 ft 2 kts 237°
2026-05-04 19:24 40.12592 32.99889 3137 ft 2 kts 256°
2026-05-04 19:24 40.12593 32.99900 3138 ft 1 kts 268°
2026-05-04 19:24 40.12593 32.99909 3138 ft 0 kts 270°
2026-05-04 19:26 40.12593 32.99908 3138 ft 0 kts 270°
2026-05-04 19:26 40.12593 32.99878 3137 ft 7 kts 268°
2026-05-04 19:27 40.12593 32.99795 3134 ft 10 kts 270°
2026-05-04 19:27 40.12549 32.99713 3132 ft 13 kts 211°
2026-05-04 19:27 40.12463 32.99632 3130 ft 15 kts 217°
2026-05-04 19:27 40.12374 32.99546 3129 ft 15 kts 216°
2026-05-04 19:28 40.12285 32.99460 3128 ft 15 kts 217°
2026-05-04 19:28 40.12196 32.99375 3127 ft 15 kts 217°
2026-05-04 19:28 40.12109 32.99292 3125 ft 15 kts 216°
2026-05-04 19:28 40.12023 32.99211 3124 ft 15 kts 216°
2026-05-04 19:29 40.11937 32.99128 3123 ft 15 kts 216°
2026-05-04 19:29 40.11851 32.99046 3122 ft 15 kts 216°
2026-05-04 19:29 40.11763 32.98963 3121 ft 15 kts 216°
2026-05-04 19:29 40.11672 32.98875 3119 ft 16 kts 217°
2026-05-04 19:30 40.11578 32.98788 3117 ft 17 kts 210°
2026-05-04 19:30 40.11480 32.98695 3114 ft 17 kts 218°
2026-05-04 19:30 40.11396 32.98616 3112 ft 11 kts 216°
2026-05-04 19:30 40.11351 32.98533 3111 ft 11 kts 256°
2026-05-04 19:31 40.11358 32.98431 3111 ft 10 kts 295°
2026-05-04 19:31 40.11398 32.98357 3111 ft 9 kts 306°
2026-05-04 19:31 40.11435 32.98290 3111 ft 8 kts 306°
2026-05-04 19:31 40.11470 32.98227 3111 ft 8 kts 306°
2026-05-04 19:32 40.11505 32.98167 3111 ft 7 kts 315°
2026-05-04 19:32 40.11554 32.98159 3111 ft 7 kts 18°
2026-05-04 19:32 40.11594 32.98190 3111 ft 6 kts 34°
2026-05-04 19:32 40.11689 32.98280 3111 ft 43 kts 36°
2026-05-04 19:33 40.12123 32.98692 3116 ft 108 kts 36°
2026-05-04 19:33 40.12880 32.99415 3119 ft 161 kts 36°
2026-05-04 19:33 40.13889 33.00372 3373 ft 183 kts 37°
2026-05-04 19:33 40.14876 33.01358 4090 ft 180 kts 37°
2026-05-04 19:34 40.15822 33.02365 4817 ft 175 kts 38°
2026-05-04 19:34 40.16736 33.03355 5460 ft 171 kts 37°
2026-05-04 19:34 40.17670 33.04346 5950 ft 174 kts 36°
2026-05-04 19:34 40.18592 33.05297 6575 ft 170 kts 36°
2026-05-04 19:35 40.19567 33.06308 6857 ft 186 kts 37°
2026-05-04 19:35 40.20605 33.07400 7215 ft 198 kts 38°
2026-05-04 19:35 40.21719 33.08616 7506 ft 217 kts 44°
2026-05-04 19:35 40.22640 33.10263 7948 ft 230 kts 62°
2026-05-04 19:36 40.23315 33.12192 8490 ft 239 kts 65°
2026-05-04 19:36 40.24000 33.14215 8900 ft 252 kts 65°
2026-05-04 19:36 40.24763 33.16364 9323 ft 266 kts 64°
2026-05-04 19:36 40.25580 33.18602 9814 ft 277 kts 64°
2026-05-04 19:37 40.26429 33.20903 10409 ft 285 kts 64°
2026-05-04 19:37 40.27307 33.23283 10830 ft 298 kts 64°
2026-05-04 19:37 40.28223 33.25785 11218 ft 313 kts 65°
2026-05-04 19:37 40.29183 33.28418 11660 ft 326 kts 64°
2026-05-04 19:38 40.30155 33.31080 12358 ft 330 kts 64°
2026-05-04 19:38 40.31156 33.33815 13109 ft 333 kts 64°
2026-05-04 19:38 40.32163 33.36566 13863 ft 336 kts 65°
2026-05-04 19:38 40.33166 33.39309 14605 ft 340 kts 65°
2026-05-04 19:39 40.34190 33.42107 15355 ft 343 kts 65°
2026-05-04 19:39 40.35231 33.44945 16096 ft 347 kts 65°
2026-05-04 19:39 40.36278 33.47809 16827 ft 350 kts 65°
2026-05-04 19:39 40.37333 33.50703 17549 ft 353 kts 65°
2026-05-04 19:40 40.38392 33.53622 18204 ft 357 kts 65°
2026-05-04 19:40 40.39448 33.56535 18897 ft 360 kts 65°
2026-05-04 19:40 40.40537 33.59543 19534 ft 364 kts 66°
2026-05-04 19:40 40.41620 33.62532 20176 ft 367 kts 66°
2026-05-04 19:41 40.42725 33.65592 20834 ft 370 kts 67°
2026-05-04 19:41 40.43827 33.68646 21407 ft 375 kts 67°
2026-05-04 19:41 40.44872 33.71786 22008 ft 377 kts 71°
2026-05-04 19:41 40.45771 33.75050 22574 ft 380 kts 74°
2026-05-04 19:42 40.46584 33.78337 23209 ft 382 kts 75°
2026-05-04 19:42 40.47382 33.81696 23747 ft 386 kts 76°
2026-05-04 19:42 40.48181 33.85075 24277 ft 390 kts 76°
2026-05-04 19:42 40.48997 33.88490 24920 ft 390 kts 75°
2026-05-04 19:43 40.49807 33.91853 25646 ft 386 kts 75°
2026-05-04 19:43 40.50623 33.95181 26363 ft 381 kts 73°
2026-05-04 19:43 40.51528 33.98451 26872 ft 383 kts 71°
2026-05-04 19:43 40.52512 34.01675 27385 ft 382 kts 69°
2026-05-04 19:44 40.53524 34.04875 27794 ft 382 kts 69°
2026-05-04 19:44 40.54557 34.08123 28032 ft 384 kts 69°
2026-05-04 19:44 40.55570 34.11324 28253 ft 381 kts 69°
2026-05-04 19:44 40.56576 34.14532 28467 ft 380 kts 69°
2026-05-04 19:45 40.57584 34.17773 28707 ft 380 kts 69°
2026-05-04 19:45 40.58570 34.20962 28854 ft 380 kts 69°
2026-05-04 19:45 40.59565 34.24195 28878 ft 379 kts 69°
2026-05-04 19:46 40.61528 34.30601 28877 ft 377 kts 69°
2026-05-04 19:46 40.63487 34.37012 28870 ft 377 kts 69°
2026-05-04 19:47 40.65449 34.43455 28873 ft 377 kts 69°
2026-05-04 19:47 40.67394 34.49861 28877 ft 377 kts 69°
2026-05-04 19:48 40.69343 34.56293 28885 ft 378 kts 69°
2026-05-04 19:48 40.71289 34.62730 28895 ft 379 kts 69°
2026-05-04 19:49 40.73229 34.69162 28898 ft 378 kts 70°
2026-05-04 19:49 40.75162 34.75592 28910 ft 377 kts 70°
2026-05-04 19:50 40.77073 34.82058 28908 ft 378 kts 70°
2026-05-04 19:50 40.78972 34.88534 28896 ft 377 kts 70°
2026-05-04 19:51 40.80866 34.95001 28895 ft 377 kts 70°
2026-05-04 19:51 40.82755 35.01459 28891 ft 379 kts 70°
2026-05-04 19:52 40.84654 35.07965 28890 ft 377 kts 70°
2026-05-04 19:52 40.86531 35.14411 28876 ft 378 kts 70°
2026-05-04 19:53 40.88407 35.20866 28864 ft 376 kts 70°
2026-05-04 19:53 40.89337 35.24068 28852 ft 365 kts 70°
2026-05-04 19:53 40.90226 35.27129 28818 ft 353 kts 70°
2026-05-04 19:53 40.91101 35.30148 28598 ft 346 kts 70°
2026-05-04 19:54 40.91948 35.33078 28227 ft 344 kts 71°
2026-05-04 19:54 40.92799 35.36023 27780 ft 342 kts 71°
2026-05-04 19:54 40.93648 35.38958 27350 ft 340 kts 71°
2026-05-04 19:54 40.94487 35.41855 26927 ft 337 kts 71°
2026-05-04 19:55 40.95327 35.44752 26494 ft 334 kts 71°
2026-05-04 19:55 40.96146 35.47575 26088 ft 331 kts 71°
2026-05-04 19:55 40.96964 35.50400 25671 ft 329 kts 71°
2026-05-04 19:55 40.97776 35.53206 25262 ft 326 kts 71°
2026-05-04 19:56 40.98587 35.56007 24848 ft 323 kts 71°
2026-05-04 19:56 40.99386 35.58771 24446 ft 320 kts 72°
2026-05-04 19:56 41.00173 35.61513 24037 ft 317 kts 72°
2026-05-04 19:56 41.00941 35.64205 23637 ft 314 kts 72°
2026-05-04 19:57 41.01706 35.66892 23244 ft 310 kts 72°
2026-05-04 19:57 41.02471 35.69586 22855 ft 309 kts 72°
2026-05-04 19:57 41.03254 35.72291 22467 ft 322 kts 72°
2026-05-04 19:57 41.04075 35.75089 22033 ft 328 kts 71°
2026-05-04 19:58 41.04897 35.77869 21625 ft 325 kts 71°
2026-05-04 19:58 41.05716 35.80635 21220 ft 322 kts 71°
2026-05-04 19:58 41.06526 35.83376 20817 ft 318 kts 71°
2026-05-04 19:58 41.07330 35.86107 20417 ft 315 kts 71°
2026-05-04 19:59 41.08116 35.88780 20019 ft 312 kts 71°
2026-05-04 19:59 41.08895 35.91436 19625 ft 309 kts 71°
2026-05-04 19:59 41.09661 35.94072 19208 ft 306 kts 72°
2026-05-04 19:59 41.10400 35.96720 18799 ft 303 kts 73°
2026-05-04 20:00 41.11112 35.99331 18442 ft 298 kts 73°
2026-05-04 20:00 41.11803 36.01891 18073 ft 295 kts 73°
2026-05-04 20:00 41.12489 36.04429 17701 ft 291 kts 73°
2026-05-04 20:00 41.13166 36.06929 17331 ft 288 kts 73°
2026-05-04 20:01 41.13837 36.09408 16975 ft 285 kts 73°
2026-05-04 20:01 41.14502 36.11869 16616 ft 281 kts 73°
2026-05-04 20:01 41.15160 36.14291 16260 ft 278 kts 73°
2026-05-04 20:01 41.15807 36.16679 15912 ft 274 kts 73°
2026-05-04 20:02 41.16453 36.19057 15570 ft 275 kts 73°
2026-05-04 20:02 41.17110 36.21498 15217 ft 290 kts 73°
2026-05-04 20:02 41.17789 36.24024 14840 ft 291 kts 73°
2026-05-04 20:02 41.18469 36.26534 14478 ft 287 kts 73°
2026-05-04 20:03 41.19136 36.29002 14115 ft 283 kts 73°
2026-05-04 20:03 41.19797 36.31456 13757 ft 280 kts 73°
2026-05-04 20:03 41.20441 36.33853 13406 ft 277 kts 73°
2026-05-04 20:03 41.21086 36.36261 13043 ft 274 kts 73°
2026-05-04 20:04 41.21719 36.38624 12689 ft 271 kts 73°
2026-05-04 20:04 41.22350 36.40980 12345 ft 268 kts 73°
2026-05-04 20:04 41.22960 36.43279 12002 ft 266 kts 73°
2026-05-04 20:04 41.23572 36.45612 11651 ft 263 kts 73°
2026-05-04 20:05 41.24171 36.47869 11318 ft 260 kts 73°
2026-05-04 20:05 41.24778 36.50120 10998 ft 258 kts 73°
2026-05-04 20:05 41.25382 36.52366 10600 ft 258 kts 73°
2026-05-04 20:05 41.25984 36.54623 10286 ft 254 kts 73°
2026-05-04 20:06 41.26570 36.56815 9980 ft 252 kts 73°
2026-05-04 20:06 41.27167 36.59057 9654 ft 264 kts 73°
2026-05-04 20:06 41.27786 36.61395 9289 ft 267 kts 73°
2026-05-04 20:06 41.28399 36.63710 8938 ft 264 kts 73°
2026-05-04 20:07 41.29005 36.66012 8601 ft 261 kts 73°
2026-05-04 20:07 41.29535 36.68263 8263 ft 257 kts 80°
2026-05-04 20:07 41.29625 36.70600 7984 ft 251 kts 101°
2026-05-04 20:07 41.28998 36.72735 7678 ft 250 kts 122°
2026-05-04 20:08 41.27967 36.74597 7204 ft 253 kts 125°
2026-05-04 20:08 41.26898 36.76469 6783 ft 253 kts 124°
2026-05-04 20:08 41.25855 36.78347 6383 ft 253 kts 123°
2026-05-04 20:08 41.24816 36.80239 5988 ft 252 kts 123°
2026-05-04 20:09 41.23795 36.82100 5604 ft 252 kts 123°
2026-05-04 20:09 41.22702 36.83959 5200 ft 254 kts 130°
2026-05-04 20:09 41.21287 36.85310 4969 ft 256 kts 156°
2026-05-04 20:09 41.19487 36.85664 4982 ft 267 kts 181°
2026-05-04 20:10 41.17673 36.85139 4973 ft 271 kts 199°
2026-05-04 20:10 41.16048 36.83834 4984 ft 275 kts 217°
2026-05-04 20:10 41.14593 36.82164 4968 ft 276 kts 222°
2026-05-04 20:10 41.13422 36.80135 4969 ft 278 kts 243°
2026-05-04 20:11 41.12889 36.77660 4968 ft 280 kts 269°
2026-05-04 20:11 41.13266 36.75205 4972 ft 275 kts 300°
2026-05-04 20:11 41.14321 36.73113 4973 ft 271 kts 311°
2026-05-04 20:11 41.15519 36.71160 4971 ft 270 kts 312°
2026-05-04 20:12 41.16701 36.69259 4972 ft 270 kts 313°
2026-05-04 20:12 41.17936 36.67358 4973 ft 269 kts 314°
2026-05-04 20:12 41.19175 36.65504 4971 ft 270 kts 315°
2026-05-04 20:12 41.20513 36.63765 4965 ft 266 kts 329°
2026-05-04 20:13 41.22185 36.62877 4974 ft 259 kts 357°
2026-05-04 20:13 41.23950 36.63130 4973 ft 252 kts 25°
2026-05-04 20:13 41.25429 36.64297 4980 ft 249 kts 39°
2026-05-04 20:13 41.26790 36.65731 4969 ft 249 kts 41°
2026-05-04 20:14 41.28139 36.67207 4971 ft 248 kts 41°
2026-05-04 20:14 41.29467 36.68666 4971 ft 249 kts 42°
2026-05-04 20:14 41.30809 36.70139 4970 ft 249 kts 41°
2026-05-04 20:14 41.32136 36.71603 4971 ft 250 kts 41°
2026-05-04 20:15 41.33402 36.73195 4963 ft 249 kts 55°
2026-05-04 20:15 41.34065 36.75290 4972 ft 247 kts 83°
2026-05-04 20:15 41.33862 36.77551 4969 ft 250 kts 111°
2026-05-04 20:15 41.32850 36.79419 4974 ft 256 kts 136°
2026-05-04 20:16 41.31391 36.80836 4965 ft 257 kts 143°
2026-05-04 20:16 41.29899 36.82097 4966 ft 257 kts 144°
2026-05-04 20:16 41.28366 36.83368 4969 ft 257 kts 144°
2026-05-04 20:16 41.26854 36.84620 4973 ft 257 kts 144°
2026-05-04 20:17 41.25346 36.85898 4963 ft 255 kts 139°
2026-05-04 20:17 41.24205 36.87644 4968 ft 250 kts 113°
2026-05-04 20:17 41.23843 36.89867 4970 ft 248 kts 86°
2026-05-04 20:17 41.24188 36.92114 4967 ft 245 kts 73°
2026-05-04 20:18 41.24707 36.94243 4965 ft 245 kts 72°
2026-05-04 20:18 41.25256 36.96413 4967 ft 246 kts 71°
2026-05-04 20:18 41.25799 36.98560 4968 ft 246 kts 71°
2026-05-04 20:18 41.26342 37.00717 4967 ft 246 kts 71°
2026-05-04 20:19 41.26885 37.02872 4970 ft 245 kts 71°
2026-05-04 20:19 41.27428 37.05032 4970 ft 246 kts 71°
2026-05-04 20:19 41.27967 37.07175 4975 ft 244 kts 71°
2026-05-04 20:19 41.28512 37.09337 4977 ft 245 kts 71°
2026-05-04 20:20 41.29058 37.11501 4979 ft 247 kts 71°
2026-05-04 20:20 41.29603 37.13665 4978 ft 247 kts 71°
2026-05-04 20:20 41.30145 37.15802 4977 ft 247 kts 71°
2026-05-04 20:20 41.30930 37.17821 4976 ft 249 kts 50°
2026-05-04 20:21 41.32339 37.19157 4977 ft 253 kts 22°
2026-05-04 20:21 41.34107 37.19421 4975 ft 260 kts 354°
2026-05-04 20:21 41.37138 37.16768 4980 ft 270 kts 313°
2026-05-04 20:22 41.38252 37.14751 4949 ft 271 kts 298°
2026-05-04 20:22 41.38651 37.12340 4709 ft 270 kts 266°
2026-05-04 20:22 41.38131 37.09952 4253 ft 272 kts 242°
2026-05-04 20:22 41.37202 37.07767 3922 ft 269 kts 239°
2026-05-04 20:23 41.36259 37.05616 3580 ft 267 kts 239°
2026-05-04 20:23 41.35228 37.03572 3243 ft 265 kts 233°
2026-05-04 20:23 41.34105 37.01622 2935 ft 263 kts 232°
2026-05-04 20:23 41.33015 36.99731 2800 ft 255 kts 233°
2026-05-04 20:24 41.31979 36.97872 2669 ft 245 kts 233°
2026-05-04 20:24 41.30970 36.96077 2588 ft 234 kts 233°
2026-05-04 20:24 41.30018 36.94387 2584 ft 225 kts 233°
2026-05-04 20:24 41.29089 36.92708 2588 ft 228 kts 234°
2026-05-04 20:25 41.28156 36.90986 2587 ft 228 kts 234°
2026-05-04 20:25 41.27228 36.89274 2579 ft 226 kts 234°
2026-05-04 20:25 41.26309 36.87592 2414 ft 223 kts 234°
2026-05-04 20:25 41.25410 36.85951 2278 ft 222 kts 234°
2026-05-04 20:26 41.24490 36.84269 2285 ft 225 kts 234°
2026-05-04 20:26 41.23567 36.82580 2278 ft 225 kts 234°
2026-05-04 20:26 41.22654 36.80911 2281 ft 225 kts 234°
2026-05-04 20:26 41.21730 36.79217 2284 ft 221 kts 234°
2026-05-04 20:27 41.20858 36.77624 2273 ft 206 kts 234°
2026-05-04 20:27 41.20015 36.76088 2278 ft 205 kts 234°
2026-05-04 20:27 41.19181 36.74565 2275 ft 204 kts 234°
2026-05-04 20:27 41.18350 36.73042 2275 ft 205 kts 234°
2026-05-04 20:28 41.17531 36.71491 2275 ft 204 kts 239°
2026-05-04 20:28 41.17041 36.69747 2271 ft 203 kts 270°
2026-05-04 20:28 41.17389 36.67969 2169 ft 201 kts 306°
2026-05-04 20:28 41.18303 36.66613 1887 ft 194 kts 317°
2026-05-04 20:29 41.19241 36.65380 1567 ft 183 kts 316°
2026-05-04 20:29 41.20092 36.64208 1351 ft 168 kts 315°
2026-05-04 20:29 41.20860 36.63137 1088 ft 158 kts 315°
2026-05-04 20:29 41.21608 36.62103 795 ft 152 kts 315°
2026-05-04 20:30 41.22330 36.61098 592 ft 147 kts 313°
2026-05-04 20:30 41.23024 36.60078 493 ft 149 kts 313°
2026-05-04 20:30 41.23742 36.59069 324 ft 154 kts 314°
2026-05-04 20:30 41.24498 36.58031 92 ft 155 kts 314°
2026-05-04 20:31 41.25183 36.57077 26 ft 110 kts 313°
2026-05-04 20:31 41.25540 36.56578 28 ft 47 kts 313°
2026-05-04 20:31 41.25780 36.56238 29 ft 53 kts 314°
2026-05-04 20:31 41.26005 36.55929 27 ft 21 kts 314°
2026-05-04 20:32 41.25971 36.55788 26 ft 17 kts 224°
2026-05-04 20:32 41.25920 36.55722 28 ft 4 kts 224°
2026-05-04 20:32 41.25901 36.55700 28 ft 2 kts 222°
2026-05-04 20:32 41.25874 36.55668 28 ft 10 kts 219°
2026-05-04 20:33 41.25828 36.55618 28 ft 0 kts 223°
2026-05-04 20:33 41.25823 36.55611 28 ft 2 kts 225°
2026-05-04 20:33 41.25818 36.55604 28 ft 0 kts 225°
2026-05-04 20:33 41.25810 36.55595 28 ft 0 kts 225°